Date String (YYYY-MM-DD hh:mm:ss) UTC,Instrument flags,Ambient pressure (hPa),Sample flow (lpm),Bypass flow (lpm),Sample temperature (°C),Ambient temperature (°C),ASC tube jacket temperature (°C),LED temperature (°C),Box temperature (°C),Sample RH (%),Span deviation,Mass concentration (μg/m³),Mass concentration (μg/m³),Mass concentration (μg/m³)
DateTimeUTC,F1_M11,P_M11,Q1_M11,Q2_M11,T1_M11,T2_M11,T3_M11,T4_M11,T5_M11,U1_M11,ZSPAN_M11,X0_M11,X2_M11,X1_M11
2022-02-23 17:00:00,,0826.2,5.02,0.00,22.6,21.8,00.0,31.7,24.2,02.8,0000.0,0007.25,0003.45,0003.17
2022-02-23 17:01:00,,0826.2,5.00,0.00,22.6,21.6,00.0,31.6,24.1,02.8,0000.0,0006.31,0003.45,0003.17
2022-02-23 17:02:00,,0826.3,5.00,0.00,22.6,22.0,00.0,31.6,24.2,02.8,0000.0,0006.29,0003.45,0003.17
2022-02-23 17:03:00,,0826.3,4.99,0.00,22.7,23.0,00.0,31.7,24.5,02.9,0000.0,0006.39,0003.47,0003.18
2022-02-23 17:04:00,,0826.3,5.00,0.00,22.9,23.7,00.0,31.7,24.7,02.9,0000.0,0006.36,0003.46,0003.17
2022-02-23 17:05:00,,0826.3,5.00,0.00,22.9,23.5,00.0,31.7,24.8,02.9,0000.0,0006.33,0003.46,0003.18
2022-02-23 17:06:00,,0826.3,5.01,0.00,22.9,23.1,00.0,31.7,24.7,02.9,0000.0,0006.51,0003.46,0003.18
2022-02-23 17:07:00,,0826.3,5.00,0.00,22.8,22.7,00.0,31.7,24.6,02.9,0000.0,0005.25,0003.44,0003.18
2022-02-23 17:08:00,,0826.3,5.00,0.00,22.8,22.3,00.0,31.7,24.4,02.8,0000.0,0005.19,0003.45,0003.18
2022-02-23 17:09:00,,0826.3,4.99,0.00,22.7,22.0,00.0,31.7,24.4,02.8,0000.0,0005.27,0003.46,0003.17
2022-02-23 17:10:00,,0826.3,5.00,0.00,22.7,21.9,00.0,31.7,24.3,02.8,0000.0,0005.17,0003.44,0003.18
2022-02-23 17:11:00,,0826.2,5.00,0.00,22.7,21.7,00.0,31.7,24.3,02.9,0000.0,0005.22,0003.46,0003.19
2022-02-23 17:12:00,,0826.2,5.01,0.00,22.6,21.7,00.0,31.7,24.3,02.8,0000.0,0005.23,0003.47,0003.21
2022-02-23 17:13:00,,0826.3,4.99,0.00,22.7,22.5,00.0,31.7,24.4,02.8,0000.0,0005.18,0003.47,0003.21
2022-02-23 17:14:00,,0826.4,5.00,0.00,22.8,23.4,00.0,31.7,24.7,02.9,0000.0,0005.27,0003.48,0003.21
2022-02-23 17:15:00,,0826.5,5.00,0.00,22.9,23.4,00.0,31.7,24.8,02.8,0000.0,0005.32,0003.49,0003.22
2022-02-23 17:16:00,,0826.5,5.01,0.00,22.9,23.1,00.0,31.8,24.8,02.8,0000.0,0005.36,0003.51,0003.22
2022-02-23 17:17:00,,0826.3,5.00,0.00,22.9,22.8,00.0,31.8,24.7,02.8,0000.0,0005.34,0003.53,0003.21
2022-02-23 17:18:00,,0826.2,4.99,0.00,22.9,22.5,00.0,31.8,24.6,02.8,0000.0,0005.27,0003.55,0003.22
2022-02-23 17:19:00,,0826.2,4.99,0.00,22.8,22.3,00.0,31.7,24.5,02.9,0000.0,0005.38,0003.55,0003.22
2022-02-23 17:20:00,,0826.2,5.00,0.00,22.8,22.1,00.0,31.7,24.5,02.9,0000.0,0006.02,0003.54,0003.22
2022-02-23 17:21:00,,0826.3,4.99,0.00,22.7,21.9,00.0,31.7,24.4,02.8,0000.0,0006.04,0003.54,0003.21
2022-02-23 17:22:00,,0826.3,5.00,0.00,22.7,21.9,00.0,31.7,24.4,02.9,0000.0,0006.06,0003.55,0003.21
2022-02-23 17:23:00,,0826.4,5.00,0.00,22.8,22.6,00.0,31.7,24.5,02.9,0000.0,0006.19,0003.56,0003.20
2022-02-23 17:24:00,,0826.5,5.00,0.00,22.9,23.5,00.0,31.8,24.8,02.9,0000.0,0006.17,0003.56,0003.21
2022-02-23 17:25:00,,0826.4,5.00,0.00,23.0,23.6,00.0,31.8,24.9,02.9,0000.0,0006.04,0003.56,0003.21
2022-02-23 17:26:00,,0826.3,4.99,0.00,23.0,23.3,00.0,31.8,24.9,02.9,0000.0,0006.19,0003.57,0003.22
2022-02-23 17:27:00,,0826.2,5.01,0.00,23.0,23.0,00.0,31.8,24.9,02.9,0000.0,0006.16,0003.54,0003.22
2022-02-23 17:28:00,,0826.1,5.01,0.00,23.0,22.8,00.0,31.8,24.8,02.9,0000.0,0005.99,0003.49,0003.22
2022-02-23 17:29:00,,0826.1,5.00,0.00,23.0,22.5,00.0,31.8,24.7,02.9,0000.0,0005.91,0003.48,0003.21
2022-02-23 17:30:00,,0826.1,5.00,0.00,22.9,22.3,00.0,31.8,24.7,02.9,0000.0,0005.89,0003.48,0003.20
2022-02-23 17:31:00,,0826.1,5.00,0.00,22.9,22.2,00.0,31.8,24.6,02.9,0000.0,0005.20,0003.49,0003.19
2022-02-23 17:32:00,,0826.1,5.00,0.00,22.9,22.1,00.0,31.8,24.6,03.0,0000.0,0006.40,0003.50,0003.19
2022-02-23 17:33:00,,0826.1,5.01,0.00,22.8,22.0,00.0,31.8,24.5,03.0,0000.0,0006.44,0003.50,0003.19
2022-02-23 17:34:00,,0826.2,4.99,0.00,22.8,22.0,00.0,31.8,24.5,03.0,0000.0,0006.93,0003.49,0003.19
2022-02-23 17:35:00,,0826.1,5.00,0.00,22.9,22.8,00.0,31.8,24.7,03.0,0000.0,0007.29,0003.50,0003.19
2022-02-23 17:36:00,,0826.1,5.00,0.00,23.0,23.6,00.0,31.8,24.9,02.9,0000.0,0007.30,0003.50,0003.19
2022-02-23 17:37:00,,0826.1,5.00,0.00,23.1,23.5,00.0,31.9,25.0,02.9,0000.0,0007.06,0003.47,0003.18
2022-02-23 17:38:00,,0826.1,4.99,0.00,23.1,23.2,00.0,31.9,24.9,02.9,0000.0,0006.98,0003.46,0003.16
2022-02-23 17:39:00,,0826.2,5.00,0.00,23.1,22.9,00.0,31.9,24.9,03.0,0000.0,0006.94,0003.47,0003.16
2022-02-23 17:40:00,,0826.2,5.00,0.00,23.0,22.6,00.0,31.9,24.8,03.0,0000.0,0006.96,0003.47,0003.18
2022-02-23 17:41:00,,0826.1,5.00,0.00,23.0,22.5,00.0,31.9,24.8,03.0,0000.0,0006.96,0003.49,0003.19
2022-02-23 17:42:00,,0826.1,4.99,0.00,23.0,22.3,00.0,31.9,24.7,03.0,0000.0,0006.92,0003.49,0003.21
2022-02-23 17:43:00,,0826.0,5.00,0.00,22.9,22.2,00.0,31.9,24.7,03.0,0000.0,0006.01,0003.52,0003.22
2022-02-23 17:44:00,,0826.0,5.00,0.00,22.9,22.1,00.0,31.9,24.6,03.0,0000.0,0005.75,0003.52,0003.24
2022-02-23 17:45:00,,0826.0,5.00,0.00,22.9,22.0,00.0,31.8,24.6,03.0,0000.0,0005.46,0003.51,0003.24
2022-02-23 17:46:00,,0826.1,5.00,0.00,22.9,22.3,00.0,31.8,24.6,02.9,0000.0,0005.47,0003.52,0003.24
2022-02-23 17:47:00,,0826.1,5.01,0.00,23.0,23.2,00.0,31.9,24.8,02.9,0000.0,0005.44,0003.51,0003.24
2022-02-23 17:48:00,,0826.1,5.00,0.00,23.1,23.8,00.0,31.9,25.0,02.9,0000.0,0005.59,0003.53,0003.25
2022-02-23 17:49:00,,0826.0,4.99,0.00,23.2,23.6,00.0,32.0,25.1,02.9,0000.0,0005.57,0003.53,0003.26
2022-02-23 17:50:00,,0826.0,5.01,0.00,23.2,23.3,00.0,32.0,25.0,03.0,0000.0,0005.60,0003.54,0003.27
2022-02-23 17:51:00,,0826.0,5.00,0.00,23.2,23.0,00.0,32.0,25.0,03.0,0000.0,0005.62,0003.55,0003.27
2022-02-23 17:52:00,,0826.0,4.98,0.00,23.2,22.8,00.0,32.0,24.9,03.0,0000.0,0005.60,0003.55,0003.27
2022-02-23 17:53:00,,0826.0,5.00,0.00,23.1,22.7,00.0,32.0,24.9,03.0,0000.0,0005.66,0003.55,0003.26
2022-02-23 17:54:00,,0826.0,5.00,0.00,23.1,22.5,00.0,32.0,24.9,03.0,0000.0,0005.57,0003.53,0003.26
2022-02-23 17:55:00,,0826.0,5.00,0.00,23.1,22.4,00.0,32.0,24.8,03.0,0000.0,0005.54,0003.50,0003.24
2022-02-23 17:56:00,,0825.9,4.99,0.00,23.1,22.3,00.0,32.0,24.8,03.0,0000.0,0005.60,0003.50,0003.22
2022-02-23 17:57:00,,0825.9,5.00,0.00,23.0,22.2,00.0,31.9,24.8,03.0,0000.0,0005.03,0003.50,0003.22
2022-02-23 17:58:00,,0825.8,5.01,0.00,23.0,22.2,00.0,31.9,24.8,03.0,0000.0,0005.25,0003.48,0003.21
2022-02-23 17:59:00,,0825.7,5.01,0.00,23.0,22.1,00.0,31.9,24.7,03.1,0000.0,0006.15,0003.48,0003.21
